[Iaude] MPEC J305: 2024 JF17 [a=0.93,e=0.13,i=32.5,H=24.2]
    mpec at cfa.harvard.edu 
    mpec at cfa.harvard.edu
       
    Tue May 14 19:28:03 EDT 2024
    
    
  
M.P.E.C. 2024-J305                                 Issued 2024 May 14, 23:26 UT
     The Minor Planet Electronic Circulars contain information on unusual
         minor planets, routine data on comets and natural satellites,
         and occasional editorial announcements.  They are published
    on behalf of Division F of the International Astronomical Union by the
          Minor Planet Center, Smithsonian Astrophysical Observatory,
                          Cambridge, MA 02138, U.S.A.
			  
             Prepared using the Tamkin Foundation Computer Network
                              MPC at CFA.HARVARD.EDU
            URL https://www.minorplanetcenter.net/    ISSN 1523-6714
                                   2024 JF17                                    
Observations:
     K24J17F*1C2024 05 13.44249417 23 32.968+24 10 09.01         19.12GVEJ305703
     K24J17F 1C2024 05 13.44480617 23 30.455+24 11 28.54         18.76GVEJ305703
     K24J17F 1C2024 05 13.44711717 23 27.949+24 12 46.87         18.74GVEJ305703
     K24J17F 1C2024 05 13.44942617 23 25.440+24 14 05.46               VEJ305703
     K24J17F KC2024 05 13.46306817 23 10.730+24 21 50.22         18.77GVEJ305I52
     K24J17F KC2024 05 13.46347817 23 10.295+24 22 04.04         18.68GVEJ305I52
     K24J17F KC2024 05 13.46388917 23 09.870+24 22 18.16         18.76GVEJ305I52
     K24J17F KC2024 05 13.46430417 23 09.424+24 22 32.05         18.55GVEJ305I52
     K24J17F 1C2024 05 13.46998417 23 03.368+24 25 44.65         19.17GVEJ305703
     K24J17F 1C2024 05 13.47016517 23 03.095+24 25 51.13         18.36GVEJ305703
     K24J17F 1C2024 05 13.47052617 23 02.764+24 26 03.70         19.19GVEJ305703
     K24J17F KC2024 05 13.47398117 22 59.020+24 27 59.69         18.86GVEJ305I52
     K24J17F KC2024 05 13.47438917 22 58.573+24 28 13.62         18.76GVEJ305I52
     K24J17F KC2024 05 13.47479917 22 58.156+24 28 27.80         18.77GVEJ305I52
     K24J17F KC2024 05 13.47522317 22 57.706+24 28 41.88               VEJ305I52
     K24J17F KB2024 05 13.68122 17 19 49.07 +26 22 19.2                VEJ305O46
     K24J17F KB2024 05 13.69496 17 19 34.76 +26 29 45.5                VEJ305O46
     K24J17F KB2024 05 13.70425 17 19 24.95 +26 34 44.6                VEJ305O46
     K24J17F KC2024 05 13.81843 17 17 36.12 +27 33 07.4          19.4 VqEJ305L04
     K24J17F KC2024 05 13.82160 17 17 32.92 +27 34 46.5          19.2 VqEJ305L04
     K24J17F 1C2024 05 13.84343 17 17 11.32 +27 45 44.4          20.4 VXEJ305033
     K24J17F 1C2024 05 13.84381 17 17 10.93 +27 45 56.4          20.3 VXEJ305033
     K24J17F 1C2024 05 13.84419 17 17 10.57 +27 46 08.0          20.8 VXEJ305033
     K24J17F KB2024 05 13.86168317 16 53.678+27 55 11.24         19.7 GXEJ305K74
     K24J17F KB2024 05 13.87255617 16 42.941+28 00 46.98         19.7 GXEJ305K74
     K24J17F KB2024 05 13.88795517 16 27.684+28 08 40.09         19.0 GXEJ305K74
     K24J17F KB2024 05 13.90330317 16 12.401+28 16 29.82         19.3 GXEJ305K74
     K24J17F KB2024 05 13.91119117 16 04.661+28 20 25.79         19.6 GXEJ305B72
     K24J17F KB2024 05 13.91937717 15 56.526+28 24 33.85         19.3 GXEJ305B72
     K24J17F KB2024 05 13.92761617 15 48.322+28 28 44.04         19.2 GXEJ305B72
     K24J17F KB2024 05 13.95507 17 15 20.410+28 42 24.95         19.4 GVEJ305L65
     K24J17F KB2024 05 13.97258 17 15 02.885+28 51 07.24         19.5 GVEJ305L65
     K24J17F 1C2024 05 13.99492 17 14 40.22 +29 02 17.9          20.1 VXEJ305033
     K24J17F 1C2024 05 13.99526 17 14 39.88 +29 02 27.9          20.2 VXEJ305033
     K24J17F 1C2024 05 13.99560 17 14 39.54 +29 02 37.9          20.1 VXEJ305033
     K24J17F 1C2024 05 13.99594 17 14 39.20 +29 02 47.9          20.0 VXEJ305033
     K24J17F KC2024 05 14.03709 17 13 56.47 +29 23 02.9          19.0 GVEJ305K88
     K24J17F KC2024 05 14.03928 17 13 54.26 +29 24 06.4          19.1 GVEJ305K88
     K24J17F KB2024 05 14.06773017 13 26.316+29 38 20.76               XEJ305L34
     K24J17F 6C2024 05 14.13394517 12 22.727+30 09 50.80         19.2 GVEJ305Z84
     K24J17F 6C2024 05 14.13516617 12 21.476+30 10 24.95         19.3 GVEJ305Z84
     K24J17F 6C2024 05 14.13640317 12 20.245+30 10 59.49         19.2 GVEJ305Z84
     K24J17F  C2024 05 14.31199417 09 46.104+31 31 46.32         18.7 GVEJ305H01
     K24J17F  C2024 05 14.31683717 09 41.323+31 33 56.77         18.7 GVEJ305H01
     K24J17F  C2024 05 14.32576717 09 32.489+31 37 57.32         18.7 GVEJ305H01
     K24J17F  C2024 05 14.33371217 09 24.630+31 41 30.35         18.7 GVEJ305H01
     K24J17F KB2024 05 14.49137717 07 10.388+32 49 04.64         19.0 GXEJ305Q06
     K24J17F KB2024 05 14.49993517 07 02.448+32 52 46.49         18.9 GXEJ305Q06
     K24J17F KB2024 05 14.50842917 06 54.534+32 56 25.71         19.1 GXEJ305Q06
     K24J17F KB2024 05 14.58571 17 05 44.20 +33 28 41.3          18.9 GVEJ305P13
     K24J17F KB2024 05 14.59330 17 05 37.14 +33 31 52.5          18.9 GVEJ305P13
     K24J17F KB2024 05 14.60120 17 05 29.78 +33 35 11.3          18.8 GVEJ305P13
     K24J17F KB2024 05 14.60950 17 05 22.07 +33 38 38.9          18.8 GVEJ305P13
     K24J17F KB2024 05 14.61987 17 05 12.39 +33 42 56.4          19.1 GVEJ305P13
     K24J17F KB2024 05 14.63104 17 05 01.95 +33 47 34.2          18.8 GVEJ305P13
     K24J17F 1C2024 05 14.85139 17 01 50.20 +35 13 46.6          20.8 VXEJ305033
     K24J17F 1C2024 05 14.85179 17 01 49.83 +35 13 56.3          20.6 VXEJ305033
     K24J17F 1C2024 05 14.85220 17 01 49.48 +35 14 05.4          20.8 VXEJ305033
     K24J17F KC2024 05 14.85601117 01 45.84 +35 15 37.9          19.4 GVEJ305G34
     K24J17F KC2024 05 14.86067817 01 41.78 +35 17 25.1          19.4 GVEJ305G34
     K24J17F KC2024 05 14.86535017 01 37.70 +35 19 14.7          19.7 GVEJ305G34
     K24J17F KC2024 05 14.87003317 01 33.44 +35 21 02.7          19.7 GVEJ305G34
     K24J17F 1C2024 05 14.96113 17 00 11.63 +35 55 36.7          20.6 VXEJ305033
     K24J17F 1C2024 05 14.96153 17 00 11.26 +35 55 45.7          20.9 VXEJ305033
     K24J17F 1C2024 05 14.96193 17 00 10.91 +35 55 54.5          20.6 VXEJ305033
Observer details:
033 Karl Schwarzschild Observatory, Tautenburg.  Observers C. Heogner, F.
    Ludwig, M. Hartmann, B. Stecklum.  Measurer B. Stecklum.  1.34-m f/3
    Schmidt + CCD.
703 Catalina Sky Survey.  Observer G. J. Leonard.  Measurers T. Beuden, V. F.
    Carvajal, D. Fay, J. B. Fazekas, D. C. Fuls, A. R. Gibbs, A. D. Grauer, H.
    Groeller, J. K. Hogan, R. A. Kowalski, S. M. Larson, G. J. Leonard, D.
    Rankin, R. L. Seaman, F. C. Shelly, K. W. Wierzchos.  0.68-m Schmidt + 10K
    CCD.
B72 Soerth Observatory.  Observer B. Koch.  0.36-m f/7.6 reflector + CMO.
G34 Oberfrauendorf.  Observer T. Felber.  0.35-m f/6.3 Schmidt-Cassegrain +
    CMOS.
H01 Magdalena Ridge Observatory, Socorro.  Observers W. H. Ryan, E. V. Ryan.
    Measurer W. H. Ryan.  2.4-m f/8.9 Ritchey-Chretien + CCD.
I52 Steward Observatory, Mt. Lemmon Station.  Observer T. Beuden.  Measurers
    T. Beuden, V. F. Carvajal, D. Fay, J. B. Fazekas, D. C. Fuls, A. R. Gibbs,
    A. D. Grauer, H. Groeller, J. K. Hogan, R. A. Kowalski, S. M. Larson, G.
    J. Leonard, D. Rankin, R. L. Seaman, F. C. Shelly, K. W. Wierzchos.  1.0-m
    prime focus + CCD.
K74 Muensterschwarzach Observatory, Schwarzach.  Observer C. Gerhard.  0.30-m
    f/3.75 reflector + CMO.
K88 GINOP-KHK, Piszkesteto.  Observers K. Sarneczky, B. Seli.  Measurer K.
    Sarneczky.  0.60-m Schmidt + CCD.
L04 ROASTERR-1 Observatory, Cluj-Napoca.  Observer L. Hudin.  0.30-m f/5
    reflector + CCD.
L34 Galhassin Robotic Telescope, Isnello.  Observer A. Nastasi.  0.40-m f/3.8
    400mm Reflector + CMO.
L65 Bredenkamp Observatory, Bremen.  Observer H. Duin.  0.23-m f/6.3 reflector
    + CMO.
O46 Daocheng Glacier Observatory.  Observer Z. Wang.  0.25-m f/8 reflector +
    CMO.
P13 Baihuashan Observatory, Beijing.  Observers Z. Wang, B. Liu.  Measurer Z.
    Wang.  0.28-m f/2.2 reflector + CMO.
Q06 Tarui Observatory, Tarui.  Observer H. Watanabe.  0.35-m f/1.9 Schmidt-
    Cassegrain + CMO.
Z84 Calar Alto-Schmidt.  Observers M. Micheli, R. Kresken.  Measurers R.
    Kresken, M. Micheli, F. Ocana, L. Conversi.  0.8-m f/3 Schmidt + CCD.
Orbital elements:
2024 JF17                                                Earth MOID = 0.0230 AU
Epoch 2024 Mar. 31.0 TT = JDT 2460400.5                 MPC                     
M 101.53615              (2000.0)            P               Q                  
n   1.10039288     Peri.  207.17206     +0.26355119     -0.87028728             
a   0.9291893      Node   230.80997     +0.95350572     +0.30039034             
e   0.1304213      Incl.   32.47068     +0.14617664     -0.39034048             
P   0.90           H   24.23          G   0.15           U   7                  
Residuals in seconds of arc
240513 703  0.0   0.5-    240513 033  0.2-  0.2-    240514 H01  0.0   0.0
240513 703  0.1-  0.0     240513 K74  0.2+  0.4-    240514 H01  0.0   0.1-
240513 703  0.1-  0.6-    240513 K74  0.2+  0.1-    240514 Q06  0.4+  0.2-
240513 703  0.3-  0.8-    240513 K74  0.3+  0.3-    240514 Q06  0.1+  0.2-
240513 I52  0.2-  0.2-    240513 K74  0.1+  0.1+    240514 Q06  0.3-  0.6-
240513 I52  0.2-  0.3-    240513 B72  0.1-  0.3+    240514 P13  0.3-  0.0
240513 I52  0.1+  0.1-    240513 B72  0.1+  0.4-    240514 P13  0.5-  0.2+
240513 I52  0.1+  0.3-    240513 B72  0.2+  0.1+    240514 P13  0.6-  0.7+
240513 703  1.0+  0.3-    240513 L65  0.2-  0.2+    240514 P13  0.2-  0.5+
240513 703  0.1-  0.1+    240513 L65  0.2-  0.6-    240514 P13  0.1-  0.6-
240513 703  0.7+  0.4+    240513 033  0.1-  0.0     240514 P13  0.3+  0.3-
240513 I52  0.1+  0.4-    240513 033  0.0   0.0     240514 033  0.2+  0.5-
240513 I52  0.1-  0.3-    240513 033  0.0   0.1-    240514 033  0.0   0.1-
240513 I52  0.2+  0.0     240513 033  0.0   0.1-    240514 033  0.2+  0.5-
240513 I52  0.3+  0.2-    240514 K88  0.3+  0.2-    240514 G34 (1.4-  1.0+)
240513 O46  0.1+  0.5-    240514 K88  0.2+  0.3-    240514 G34  0.1-  0.3-
240513 O46  0.7+  0.4+    240514 L34  0.1+  0.6-    240514 G34  1.0+  0.8+
240513 O46  0.4-  0.3-    240514 Z84  0.1+  0.2+    240514 G34  0.1+  0.2+
240513 L04  0.3+  0.6+    240514 Z84  0.3-  0.0     240514 033  0.1-  0.1+
240513 L04  0.4-  0.5+    240514 Z84  0.1-  0.2-    240514 033  0.2-  0.1+
240513 033  0.1-  0.2-    240514 H01  0.1-  0.2+    240514 033  0.0   0.0
240513 033  0.3-  0.0     240514 H01  0.0   0.1-
Ephemeris:
2024 JF17                a,e,i = 0.93, 0.13, 32                  q = 0.8080
Date    TT    R. A. (2000) Decl.     Delta      r    Elong.  Phase     V
2024 04 14    00 24 19.5 -71 09 31   0.2424  0.9955    81.3    84.8    24.1
...
2024 04 29    22 31 40.5 -69 28 09   0.1141  1.0198    93.2    80.4    22.4
...
2024 05 07    19 45 14.3 -51 14 52   0.04912 1.0301   114.1    63.4    20.0
...
2024 05 13    17 31 13.6 +19 41 42   0.03975 1.0365   130.1    48.2    19.1
2024 05 14    17 14 33.5 +29 05 38   0.04522 1.0374   125.3    52.6    19.5
2024 05 15    16 59 35.6 +36 10 27   0.05179 1.0384   120.9    56.7    19.9
...
2024 05 21    15 57 37.7 +54 26 36   0.1003  1.0432   105.4    69.3    21.8
...
2024 05 29    15 16 55.8 +60 22 45   0.1702  1.0476    96.9    73.8    23.1
...
2024 06 13    14 46 34.4 +62 46 02   0.2961  1.0501    88.4    75.2    24.3
A. U. Tomatic                (C) Copyright 2024 MPC           M.P.E.C. 2024-J305
    
    
More information about the Iaude
mailing list